| DS18B20 | SHTC3 | ||||||
|---|---|---|---|---|---|---|---|
| ID | Date d/m/Y & Time | data1 สูง | data2 ต่ำ | data3 นอก | temp pcb | hum pcb | Time |
| 7082 | 30/03/2026 03:47:14 | 28.2  | 28.2  | 27.0  | 28.1  | 72.5  | 03:47 |
| 7081 | 30/03/2026 03:42:32 | 28.2  | 28.2  | 26.9  | 28.1  | 72.5  | 03:42 |
| 7080 | 30/03/2026 03:37:50 | 28.2  | 28.2  | 26.9  | 28.1  | 72.4  | 03:37 |
| 7079 | 30/03/2026 03:33:09 | 28.2  | 28.2  | 26.8  | 28.2  | 72.6  | 03:33 |
| 7078 | 30/03/2026 03:28:27 | 28.2  | 28.2  | 26.9  | 28.1  | 72.5  | 03:28 |
| 7077 | 30/03/2026 03:23:46 | 28.3  | 28.2  | 26.9  | 28.1  | 72.5  | 03:23 |
| 7076 | 30/03/2026 03:19:04 | 28.3  | 28.2  | 26.9  | 28.1  | 72.4  | 03:19 |
| 7075 | 30/03/2026 03:14:22 | 28.3  | 28.3  | 26.9  | 28.2  | 72.4  | 03:14 |
| 7074 | 30/03/2026 03:09:41 | 28.3  | 28.3  | 26.9  | 28.2  | 72.4  | 03:09 |
| 7073 | 30/03/2026 03:04:59 | 28.3  | 28.3  | 27.0  | 28.1  | 72.5  | 03:04 |
| 7072 | 30/03/2026 03:00:16 | 28.4  | 28.3  | 27.0  | 28.2  | 72.4  | 03:00 |
| 7071 | 30/03/2026 02:55:35 | 28.4  | 28.4  | 27.0  | 28.1  | 72.3  | 02:55 |
| 7070 | 30/03/2026 02:50:53 | 28.4  | 28.4  | 27.1  | 28.1  | 72.5  | 02:50 |
| 7069 | 30/03/2026 02:46:11 | 28.4  | 28.4  | 27.0  | 28.2  | 72.4  | 02:46 |
| 7068 | 30/03/2026 02:41:28 | 28.4  | 28.4  | 27.0  | 28.4  | 72.4  | 02:41 |
| 7067 | 30/03/2026 02:36:45 | 28.4  | 28.4  | 27.2  | 28.3  | 72.4  | 02:36 |
| 7066 | 30/03/2026 02:32:03 | 28.4  | 28.4  | 27.2  | 28.1  | 72.4  | 02:32 |
| 7065 | 30/03/2026 02:27:21 | 28.4  | 28.4  | 27.2  | 28.4  | 72.5  | 02:27 |
| 7064 | 30/03/2026 02:22:39 | 28.4  | 28.4  | 27.1  | 28.3  | 72.4  | 02:22 |
| 7063 | 30/03/2026 02:17:57 | 28.5  | 28.4  | 27.1  | 28.2  | 72.4  | 02:17 |
| 7062 | 30/03/2026 02:13:15 | 28.5  | 28.5  | 27.2  | 28.4  | 72.3  | 02:13 |
| 7061 | 30/03/2026 02:08:33 | 28.5  | 28.5  | 27.4  | 28.1  | 72.4  | 02:08 |
| 7060 | 30/03/2026 02:03:51 | 28.5  | 28.5  | 27.4  | 28.4  | 72.5  | 02:03 |
| 7059 | 30/03/2026 01:59:10 | 28.5  | 28.5  | 27.3  | 28.3  | 72.4  | 01:59 |